Location: Larkspur
(54.4391°N, 113.7691°W)
Time: 12:54:52
(UTC+00:00)

METEOR M2 - Pass Details

Date: 03 December 2023
Orbit: 819 x 826 km, 98.4° (Epoch: 02 March)

Event Time Altitude Azimuth Distance (km) Brightness Sun altitude
Rises 23:51:47 0° 151° (SSE) 3,356 ? -5.4°
Reaches altitude 10° 23:54:08 10° 149° (SSE) 2,427 ? -5.7°
Maximum altitude 23:59:27 65° 69° (ENE) 912 ? -6.4°
Drops below altitude 10° 00:04:48 10° 349° (NNW) 2,441 ? -7.0°
Sets 00:07:10 0° 346° (NNW) 3,378 ? -7.3°
